Home > Weather > Palma > Past weeks

Flag for Spain Past Weather in Palma, Majorca, Spain — Yesterday and Last 2 Weeks

Now
72 °F

Passing clouds.


Feels Like: 71 °F
Forecast: 63 / 87 °F
Wind: 1 mph from Southeast

Location: Palma De Mallorca / Son San Juan

Current Time: Aug 26, 2016 at 12:14:33 AM

Latest Report: Aug 25, 2016 at 11:30 PM


Visibility: N/A

Pressure: 30.01 "Hg

Humidity: 83%

Dew Point: 66 °F

Location of PalmaLocation

Past Weather in Palma — Graph

°F

Palma Temperature Yesterday

Maximum temperature yesterday: 86 °F (at 12:00 PM)
Minimum temperature yesterday: 61 °F (at 6:30 AM)
Average temperature yesterday: 75 °F

High & Low Weather Summary for the Past Weeks

 TemperatureHumidityPressure
High90 °F (Aug 14, 1:30 PM)100% (Aug 19, 8:00 AM)30.27 "Hg (Aug 19, 8:00 AM)
Low59 °F (Aug 12, 7:00 AM)27% (Aug 24, 1:00 PM)29.83 "Hg (Aug 18, 8:00 PM)
Average76 °F70%30.07 "Hg
* Reported Aug 10 11:00 PM — Aug 25 11:00 PM, Palma, Weather by CustomWeather, © 2016

Note: Actual official high and low records may vary slightly from our data, if they occured in-between our weather recording intervals... More about our weather records

Advertising

Palma Weather History for the Previous 24 Hours

Scroll right to see more
 ConditionsComfort  
Time TempWeatherWind HumidityBarometerVisibility
11:00 PM
Thu, Aug 25
73 °FPassing clouds.1 mph83%30.04 "HgN/A
10:30 PM73 °FPassing clouds.1 mph78%30.04 "HgN/A
10:00 PM75 °FPassing clouds.2 mph78%30.01 "HgN/A
9:30 PM77 °FPassing clouds.1 mph74%30.01 "HgN/A
9:00 PM77 °FPassing clouds.6 mph74%30.01 "HgN/A
8:30 PM79 °FPassing clouds.5 mph74%30.01 "HgN/A
8:00 PM79 °FPassing clouds.8 mph74%30.01 "HgN/A
7:30 PM81 °FPassing clouds.10 mph70%30.01 "HgN/A
7:00 PM81 °FPassing clouds.12 mph66%30.01 "HgN/A
6:30 PM81 °FPassing clouds.10 mph70%30.01 "HgN/A
6:00 PM82 °FPassing clouds.12 mph66%30.01 "HgN/A
5:30 PM82 °FPassing clouds.13 mph66%30.01 "HgN/A
5:00 PM82 °FPassing clouds.13 mph66%30.01 "HgN/A
4:30 PM82 °FPassing clouds.13 mph66%30.01 "HgN/A
4:00 PM82 °FPassing clouds.14 mph66%30.01 "HgN/A
3:30 PM84 °FPassing clouds.14 mph62%30.01 "HgN/A
3:00 PM84 °FPassing clouds.14 mph62%30.01 "HgN/A
2:30 PM84 °FPassing clouds.15 mph62%30.01 "HgN/A
2:00 PM84 °FPassing clouds.13 mph62%30.01 "HgN/A
1:30 PM84 °FPassing clouds.13 mph62%30.01 "HgN/A
1:00 PM84 °FPassing clouds.13 mph58%30.04 "HgN/A
12:30 PM84 °FPassing clouds.9 mph62%30.04 "HgN/A
12:00 PM86 °FPassing clouds.1 mph52%30.04 "HgN/A
11:30 AM84 °FPassing clouds.7 mph55%30.04 "HgN/A
11:00 AM82 °FPassing clouds.7 mph58%30.04 "HgN/A
10:30 AM81 °FPassing clouds.12 mph66%30.04 "HgN/A
10:00 AM79 °FPassing clouds.10 mph70%30.04 "HgN/A
9:30 AM79 °FPassing clouds.6 mph70%30.04 "HgN/A
9:00 AM73 °FPassing clouds.1 mph69%30.04 "HgN/A
8:30 AM70 °FPassing clouds.1 mph73%30.04 "HgN/A
8:00 AM66 °FPassing clouds.1 mph73%30.04 "HgN/A
7:30 AM61 °FPassing clouds.1 mph83%30.04 "HgN/A
7:00 AM63 °FClear.No wind77%30.04 "Hg10 mi
6:30 AM61 °FClear.3 mph83%30.04 "Hg10 mi
6:00 AM63 °FClear.1 mph77%30.04 "Hg10 mi
5:30 AM63 °FClear.3 mph77%30.04 "Hg10 mi
5:00 AM63 °FClear.2 mph77%30.01 "Hg10 mi
4:30 AM63 °FClear.3 mph83%30.01 "Hg10 mi
4:00 AM66 °FClear.2 mph78%30.01 "Hg10 mi
3:30 AM64 °FClear.7 mph83%30.01 "Hg10 mi
3:00 AM64 °FPassing clouds.3 mph83%30.01 "HgN/A
2:30 AM66 °FClear.7 mph78%30.04 "Hg10 mi
2:00 AM66 °FClear.6 mph78%30.04 "Hg10 mi
1:30 AM68 °FClear.3 mph73%30.04 "Hg10 mi
1:00 AM68 °FClear.1 mph73%30.04 "Hg10 mi
12:30 AM68 °FClear.No wind73%30.07 "Hg10 mi
12:00 AM70 °FClear.No wind69%30.07 "Hg10 mi
Weather by CustomWeather, © 2016

See weather overviewHow to use our weather pages